SCP
0 0 0 0 0 0 0 0 0 0 0 0 0 0 0 0 0 0 0 0 0 0 0 0 0 0 0 0 0 0 0 0 0 0 0 0 0 0 0 0 0 0 0 0 0
0 0 0 0 0 0 0 0 0 0 0 0 0 0 0 0 0 0 0 0 0 0 0 0 0 0 0 0 0 0 0 0 0 0 0 0 0 0 0 0 0 0 0 0 0
0 0 0 0 0 0 0 0 0 0 0 0 0 0 0 0 0 0 0 0 0 0 0 0 0 0 0 0 0 0 0 0 0 0 0 0 0 0 0 0 0 0 0 0 0
0 0 0 0 0 0 0 0 0 0 0 0 0 0 0 0 0 0 0 0 0 0 0 0 0 0 0 0 0 0 0 0 0 0 0 0 0 0 0 0 0 0 0 0 0
0 0 0 0 0 0 0 0 0 0 0 0 0 0 0 0 0 0 0 0 0 0 0 0 0 0 0 0 0 0 0 0 0 0 0 0 0 0 0 0 0 0 0 0 0
0 0 0 0 0 0 0 0 0 0 0 0 0 0 0 0 0 0 0 0 0 0 0 0 0 0 0 0 0 0 0 0 0 0 0 0 0 0 0 0 0 0 0 0 0
0 0 0 0 0 0 0 0 0 0 0 0 0 0 0 0 0 0 0 0 0 0 0 0 0 0 0 0 0 0 0 0 0 0 0 0 0 0 0 0 0 0 0 0 0
0 0 0 0 0 0 0 0 0 0 0 0 0 0 0 0 0 0 0 0 0 0 0 0 0 0 0 0 0 0 0 0 0 0 0 0 0 0 0 0 0 0 0 0 0
0 0 0 0 0 0 0 0 0 0 0 0 0 0 0 0 0 0 0 0 0 0 0 0 0 0 0 0 0 0 0 0 0 0 0 0 0 0 0 0 0 0 0 0 0
0 0 0 0 0 0 0 0 0 0 0 0 0 0 0 0 0 0 0 0 0 0 0 0 0 0 0 0 0 0 0 0 0 0 0 0 0 0 0 0 0 0 0 0 0
0 0 0 0 0 0 0 0 0 0 0 0 0 0 0 0 0 0 0 0 0 0 0 0 0 0 0 0 0 0 0 0 0 0 0 0 0 0 0 0 0 0 0 0 0
0 0 0 0 0 0 0 0 0 0 0 0 0 0 0 0 0 0 0 0 0 0 0 0 0 0 0 0 0 0 0 0 0 0 0 0 0 0 0 0 0 0 0 0 0
0 0 0 0 0 0 0 0 0 0 0 0 0 0 0 0 0 0 0 0 0 0 0 0 0 0 0 0 0 0 0 0 0 0 0 0 0 0 0 0 0 0 0 0 0
0 0 0 0 0 0 0 0 0 0 0 0 0 0 0 0 0 0 0 0 0 0 0 0 0 0 0 0 0 0 0 0 0 0 0 0 -0 0 0 0 0 0 0 0 0
0 0 0 0 0 0 0 0 0 0 0 0 0 0 0 0 0 0 0 0 0 0 0 0 0 0 0 0 0 0 0 0 0 0 0 0 0 -0 0 0 0 0 0 0 0
0 0 0 0 0 0 0 0 0 0 0 0 0 0 0 0 0 0 0 0 0 0 0 0 0 0 0 0 0 0 0 0 0 0 0 0 0 -0 0 0 0 0 0 0 0
0 0 0 0 0 0 0 0 0 0 0 0 0 0 0 0 0 0 0 0 0 0 0 0 0 0 0 0 0 0 0 0 0 0 0 0 0 0 0 0 0 0 0 0 0
0 0 0 0 0 0 0 0 0 0 0 0 0 0 0 0 0 0 0 0 0 0 0 0 0 0 0 0 0 0 0 0 0 0 0 0 0 0 0 0 0 0 0 0 0
0 0 0 0 0 0 0 0 0 0 0 0 0 0 0 0 0 0 0 0 0 0 0 0 0 0 0 0 0 0 0 0 0 0 0 0 0 0 0 0 0 0 0 0 0
0 0 0 0 0 0 0 0 0 0 0 0 0 0 0 0 0 0 0 0 0 0 0 0 0 0 0 0 0 0 0 0 0 0 0 0 0 0 0 0 0 0 0 0 0
0 0 0 0 0 0 0 0 0 0 0 0 0 0 0 0 0 0 0 0 0 0 0 0 0 0 0 0 0 0 0 0 0 0 0 0 0 0 0 0 0 0 0 0 0
0 0 0 0 0 0 0 0 0 0 0 0 0 0 -0 0 0 0 0 0 0 0 0 0 0 0 0 0 0 0 0 0 0 0 0 0 0 0 0 0 0 0 0 0 0
0 0 0 0 0 0 0 0 0 0 0 0 0 0 0 -0 -0 0 0 0 0 0 0 0 0 0 0 0 0 0 0 0 0 0 0 0 0 0 0 0 0 0 0 0 0
0 0 0 0 0 0 -0 0 0 0 0 0 0 0 -0 -0 0 0 0 0 0 0 0 0 0 0 0 0 0 0 0 0 0 0 0 0 0 0 0 0 0 0 0 0 0
0 0 0 0 0 0 0 0 0 0 0 0 0 0 -0 -0 -0 0 0 0 0 0 0 0 0 0 0 0 0 0 0 0 0 0 0 0 0 0 0 0 0 0 0 0 0
0 0 0 0 0 0 0 0 0 0 0 0 0 0 -0 -0 -0 0 0 0 0 0 0 0 0 0 0 0 0 0 0 0 0 0 0 0 0 0 0 0 0 0 0 0 0
0 0 0 0 0 0 0 0 0 0 0 0 0 0 0 -0 -0 -0 0 0 0 0 0 0 0 0 0 0 0 0 0 0 0 0 0 0 0 0 0 0 0 0 0 0 0
Wind_Speed_500mb
43 41 38 36 32 30 31 30 31 32 38 36 36 40 43 49 56 48 38 29 21 41 21 11 15 12 9 15 20 8 8 15 20 22 17 3 7 11 8 4 7 9 8 25 28
40 41 42 40 37 34 29 31 35 31 28 28 29 33 39 42 42 47 37 35 41 33 23 15 14 18 15 17 14 15 8 13 19 20 11 24 10 5 8 15 10 9 12 23 19
42 46 46 42 41 40 39 36 25 21 30 29 29 27 28 28 36 14 26 45 42 40 34 18 20 23 27 22 29 13 10 16 34 16 18 24 22 9 8 10 15 21 32 26 22
51 55 53 53 53 51 48 43 36 30 27 32 28 29 28 17 12 12 18 17 32 49 36 21 24 30 19 22 35 14 28 40 36 13 9 8 19 25 13 18 6 5 23 24 27
57 53 56 58 59 51 48 50 46 41 28 23 19 25 30 24 38 34 25 7 10 24 46 36 32 37 19 21 35 29 28 31 39 24 10 20 22 17 32 19 17 15 15 16 22
57 59 53 55 53 53 52 48 46 48 42 31 23 24 30 41 25 31 34 24 12 20 35 43 22 37 23 33 26 9 35 37 42 26 26 22 28 34 18 24 33 15 14 18 22
58 60 64 62 67 63 61 56 50 48 45 40 35 32 39 62 14 15 23 21 23 21 28 42 42 16 16 19 33 38 14 15 31 34 13 21 34 30 55 38 20 30 26 26 24
70 67 70 69 62 66 62 69 63 55 48 46 43 37 42 18 45 28 12 18 20 21 25 29 35 31 33 24 8 15 17 15 15 24 20 19 28 19 62 59 55 39 35 37 38
77 78 71 68 62 63 61 48 56 60 50 47 47 41 30 19 56 44 42 23 16 16 18 13 23 22 16 19 11 16 9 27 23 32 17 25 7 21 48 46 60 60 54 45 38
78 76 72 68 59 39 51 51 43 46 48 42 53 27 44 10 21 38 42 51 26 23 20 25 20 17 18 22 25 11 27 25 25 16 24 26 30 18 16 8 18 30 31 33 43
74 76 73 67 65 49 42 44 30 25 51 37 17 39 17 19 18 32 44 35 42 38 27 36 19 35 54 41 28 28 17 20 16 32 18 31 24 20 39 26 22 24 26 38 46
77 77 75 67 69 60 53 64 46 17 19 73 63 54 76 12 25 26 47 37 44 34 35 19 40 54 19 34 35 27 30 28 12 14 6 12 20 17 21 33 45 46 48 43 36
66 75 76 68 67 64 70 82 67 43 15 34 74 63 48 55 38 53 66 53 35 36 45 42 5 34 34 31 34 39 37 25 14 7 7 11 24 27 23 48 53 57 51 49 50
83 54 73 68 66 74 78 67 48 44 15 19 23 37 61 41 22 44 70 39 23 41 40 33 53 17 38 34 35 35 23 20 16 17 8 16 12 10 13 42 42 58 52 58 60
64 83 53 65 57 62 81 62 47 38 25 21 36 26 49 43 20 44 69 61 32 29 32 31 33 43 18 48 28 18 10 16 24 12 8 18 8 11 20 10 19 27 46 47 49
63 65 64 56 67 68 73 58 53 19 18 17 22 32 38 58 58 25 68 56 37 29 31 49 28 29 51 15 16 10 3 6 12 13 22 35 18 10 17 10 17 20 44 36 28
60 64 59 63 54 56 76 66 19 30 11 12 18 30 50 42 47 34 40 42 21 22 32 27 47 2 10 39 21 20 25 8 7 10 19 17 21 34 10 14 13 17 23 27 30
55 56 66 67 55 53 53 24 29 31 38 9 13 31 45 38 36 44 36 37 38 32 18 25 19 38 20 17 23 33 35 7 17 15 19 19 17 16 23 53 17 42 37 36 37
44 54 58 56 64 54 48 27 25 12 19 26 16 26 29 37 22 35 42 43 47 46 22 30 28 29 19 15 28 34 28 51 10 3 3 9 11 1 7 4 23 41 45 42 37
40 42 49 56 58 67 20 40 7 8 16 9 27 16 26 32 33 40 42 46 45 51 38 17 14 26 36 28 34 29 33 16 9 7 10 10 14 15 22 19 17 22 38 42 36
36 12 22 52 47 28 19 8 6 17 21 16 10 8 15 40 45 27 27 32 53 51 41 14 8 6 30 27 41 25 24 19 14 11 13 7 10 14 18 17 24 24 49 39 32
38 8 16 38 17 4 16 12 8 13 12 5 12 11 8 8 23 51 43 41 70 49 51 39 8 8 41 14 30 36 38 39 14 33 19 3 7 10 11 21 32 43 49 36 27
14 23 23 44 11 12 3 6 13 13 14 12 7 14 9 10 11 22 34 38 62 48 51 36 11 11 14 3 11 14 38 28 36 9 22 19 7 11 16 29 47 49 42 28 21
15 7 9 22 15 9 3 7 7 31 12 8 7 9 6 9 5 21 34 20 39 55 58 43 10 27 27 27 20 16 23 30 29 22 22 21 11 14 14 17 26 44 36 28 17
16 7 12 11 18 13 13 4 13 8 9 21 5 13 16 12 10 13 36 7 11 18 46 26 25 11 9 9 10 30 36 32 35 39 26 27 14 21 22 16 22 43 32 25 16
18 12 17 1 19 22 19 14 17 16 14 14 9 23 19 15 23 20 13 15 6 20 29 18 19 7 4 6 13 22 33 32 39 35 20 13 14 7 32 45 33 27 24 22 11
38 23 20 10 14 17 21 25 32 22 20 20 19 9 11 23 19 24 30 13 18 28 19 21 11 16 11 7 10 7 25 36 33 21 26 21 26 7 4 17 27 26 21 14 6
Wind_Direction_500mb
266 270 280 279 286 295 252 256 272 264 259 267 273 271 277 284 286 287 271 246 228 242 243 232 225 211 206 228 220 226 259 238 236 249 250 355 137 161 234 261 164 134 121 154 193
272 266 264 270 275 280 287 272 270 262 262 265 274 277 281 289 298 282 259 239 235 236 222 210 221 198 200 214 204 215 232 236 272 276 321 272 154 273 171 210 212 170 179 189 193
267 260 262 261 268 272 269 272 286 298 255 261 264 277 282 304 310 274 259 241 230 223 219 212 223 211 225 210 204 210 238 242 267 318 5 333 337 285 309 262 203 219 214 210 198
259 265 265 259 261 264 265 260 264 273 295 257 272 272 269 283 268 277 278 257 231 219 210 217 219 217 218 226 214 245 242 244 264 5 352 299 306 294 265 263 342 75 189 205 207
261 266 265 260 254 259 254 255 261 256 256 267 283 279 257 256 250 285 279 276 231 215 209 207 215 214 225 212 228 228 248 260 256 269 255 290 277 264 281 270 283 261 166 219 214
268 258 262 260 255 255 254 254 254 257 249 242 239 249 249 250 242 233 257 246 189 214 209 204 218 222 255 248 247 215 241 245 263 253 262 255 265 255 245 267 249 232 218 206 212
261 267 263 266 260 255 257 255 255 253 249 238 237 240 242 238 229 264 248 218 215 180 212 211 213 218 238 285 276 259 280 255 247 233 214 243 255 238 244 247 257 229 223 225 230
266 263 264 259 263 266 261 253 253 253 247 240 237 238 249 261 243 232 227 215 211 201 188 205 220 250 265 270 309 243 250 245 209 217 218 157 250 242 233 233 236 231 228 228 225
264 268 260 256 261 262 253 258 246 250 249 237 232 222 259 255 225 232 211 215 234 223 209 197 197 214 234 237 264 216 233 220 257 232 183 189 280 235 244 237 227 232 237 223 227
261 261 257 252 249 253 254 251 248 247 240 231 228 197 242 223 210 209 216 223 231 211 203 201 190 196 218 193 214 197 219 244 251 216 192 205 231 284 298 280 247 231 235 234 235
258 259 255 251 244 243 243 243 236 235 224 208 213 199 122 238 206 209 199 199 206 213 204 192 202 208 208 209 220 267 267 242 233 241 190 225 246 224 250 229 219 244 240 235 237
260 257 255 252 239 236 233 226 219 223 227 227 228 223 227 214 182 207 184 186 198 210 201 184 219 225 213 206 222 231 254 262 305 72 56 301 275 271 245 252 247 230 233 235 235
260 256 252 248 236 227 229 235 232 246 243 229 225 226 218 222 223 191 183 196 200 203 206 211 226 208 232 219 217 217 227 235 225 161 194 304 277 258 245 250 245 248 245 247 247
264 260 249 246 244 224 226 228 221 231 245 205 213 234 211 196 230 207 191 176 215 216 214 227 234 267 209 232 216 227 212 235 250 233 227 162 283 247 234 230 229 236 238 238 241
261 253 245 231 237 219 223 212 210 215 239 191 191 201 193 188 171 211 198 204 206 200 203 225 214 221 209 218 220 232 251 197 235 246 222 253 268 262 223 234 202 213 230 243 240
259 255 251 236 238 245 213 186 184 216 213 177 140 177 176 199 214 210 188 201 213 214 213 232 230 212 228 196 224 150 133 289 220 217 244 227 235 224 235 212 193 217 214 214 181
257 255 242 238 228 246 207 176 196 221 124 185 183 177 197 195 206 198 181 192 187 190 209 228 227 340 263 211 197 195 170 160 184 210 231 186 207 239 251 314 152 132 113 117 132
253 248 237 228 230 225 197 201 209 200 213 150 164 186 199 187 209 201 187 189 205 198 169 191 203 191 187 232 191 208 189 174 201 201 227 195 207 229 219 238 125 143 136 137 129
249 241 242 240 227 219 220 210 202 132 203 213 169 187 204 204 200 183 198 196 189 194 196 191 224 164 196 193 180 207 208 219 32 50 38 190 208 285 109 68 144 123 137 134 130
242 243 231 237 211 199 208 240 189 164 138 102 232 226 192 204 208 192 192 190 195 202 201 161 207 190 191 180 236 193 202 205 214 200 215 217 192 221 178 184 148 138 148 132 125
224 233 231 205 205 203 217 218 142 186 140 141 175 291 327 224 210 203 194 193 198 198 201 188 219 246 158 203 199 207 210 217 186 245 216 232 229 208 171 175 162 154 132 124 109
209 214 223 182 199 258 208 188 122 183 174 157 127 150 241 292 289 209 210 204 196 187 201 204 178 183 197 166 203 212 208 205 206 201 224 13 311 351 106 172 132 113 107 107 110
209 188 164 180 210 230 179 178 196 147 196 185 215 155 130 307 328 265 213 202 186 192 197 189 176 149 171 250 329 212 216 208 222 258 214 209 225 80 50 92 112 112 117 119 120
180 158 165 186 225 212 164 125 211 205 185 172 150 103 99 257 83 298 290 198 186 194 190 165 179 198 195 207 130 187 190 218 217 220 222 218 174 139 136 119 112 126 129 127 123
195 177 177 189 201 183 154 196 154 169 229 209 132 181 179 196 201 266 277 156 313 233 188 169 196 188 114 82 170 194 192 197 215 220 216 223 229 174 177 125 111 129 128 125 114
167 164 182 106 186 187 206 204 204 194 155 187 165 193 200 196 201 208 300 317 189 237 184 177 188 108 98 19 44 186 192 201 211 222 221 220 253 198 115 120 111 107 110 106 94
199 184 161 199 180 181 205 204 204 189 211 213 185 191 186 215 244 221 189 197 283 282 201 166 141 154 179 114 80 350 203 202 218 212 212 212 223 3 47 104 106 110 107 101 33
Wind_Speed_850mb
43 41 38 36 32 30 31 30 31 32 38 36 36 40 43 49 56 48 38 29 21 41 21 11 15 12 9 15 20 8 8 15 20 22 17 3 7 11 8 4 7 9 8 25 28
40 41 42 40 37 34 29 31 35 31 28 28 29 33 39 42 42 47 37 35 41 33 23 15 14 18 15 17 14 15 8 13 19 20 11 24 10 5 8 15 10 9 12 23 19
42 46 46 42 41 40 39 36 25 21 30 29 29 27 28 28 36 14 26 45 42 40 34 18 20 23 27 22 29 13 10 16 34 16 18 24 22 9 8 10 15 21 32 26 22
51 55 53 53 53 51 48 43 36 30 27 32 28 29 28 17 12 12 18 17 32 49 36 21 24 30 19 22 35 14 28 40 36 13 9 8 19 25 13 18 6 5 23 24 27
57 53 56 58 59 51 48 50 46 41 28 23 19 25 30 24 38 34 25 7 10 24 46 36 32 37 19 21 35 29 28 31 39 24 10 20 22 17 32 19 17 15 15 16 22
57 59 53 55 53 53 52 48 46 48 42 31 23 24 30 41 25 31 34 24 12 20 35 43 22 37 23 33 26 9 35 37 42 26 26 22 28 34 18 24 33 15 14 18 22
58 60 64 62 67 63 61 56 50 48 45 40 35 32 39 62 14 15 23 21 23 21 28 42 42 16 16 19 33 38 14 15 31 34 13 21 34 30 55 38 20 30 26 26 24
70 67 70 69 62 66 62 69 63 55 48 46 43 37 42 18 45 28 12 18 20 21 25 29 35 31 33 24 8 15 17 15 15 24 20 19 28 19 62 59 55 39 35 37 38
77 78 71 68 62 63 61 48 56 60 50 47 47 41 30 19 56 44 42 23 16 16 18 13 23 22 16 19 11 16 9 27 23 32 17 25 7 21 48 46 60 60 54 45 38
78 76 72 68 59 39 51 51 43 46 48 42 53 27 44 10 21 38 42 51 26 23 20 25 20 17 18 22 25 11 27 25 25 16 24 26 30 18 16 8 18 30 31 33 43
74 76 73 67 65 49 42 44 30 25 51 37 17 39 17 19 18 32 44 35 42 38 27 36 19 35 54 41 28 28 17 20 16 32 18 31 24 20 39 26 22 24 26 38 46
77 77 75 67 69 60 53 64 46 17 19 73 63 54 76 12 25 26 47 37 44 34 35 19 40 54 19 34 35 27 30 28 12 14 6 12 20 17 21 33 45 46 48 43 36
66 75 76 68 67 64 70 82 67 43 15 34 74 63 48 55 38 53 66 53 35 36 45 42 5 34 34 31 34 39 37 25 14 7 7 11 24 27 23 48 53 57 51 49 50
83 54 73 68 66 74 78 67 48 44 15 19 23 37 61 41 22 44 70 39 23 41 40 33 53 17 38 34 35 35 23 20 16 17 8 16 12 10 13 42 42 58 52 58 60
64 83 53 65 57 62 81 62 47 38 25 21 36 26 49 43 20 44 69 61 32 29 32 31 33 43 18 48 28 18 10 16 24 12 8 18 8 11 20 10 19 27 46 47 49
63 65 64 56 67 68 73 58 53 19 18 17 22 32 38 58 58 25 68 56 37 29 31 49 28 29 51 15 16 10 3 6 12 13 22 35 18 10 17 10 17 20 44 36 28
60 64 59 63 54 56 76 66 19 30 11 12 18 30 50 42 47 34 40 42 21 22 32 27 47 2 10 39 21 20 25 8 7 10 19 17 21 34 10 14 13 17 23 27 30
55 56 66 67 55 53 53 24 29 31 38 9 13 31 45 38 36 44 36 37 38 32 18 25 19 38 20 17 23 33 35 7 17 15 19 19 17 16 23 53 17 42 37 36 37
44 54 58 56 64 54 48 27 25 12 19 26 16 26 29 37 22 35 42 43 47 46 22 30 28 29 19 15 28 34 28 51 10 3 3 9 11 1 7 4 23 41 45 42 37
40 42 49 56 58 67 20 40 7 8 16 9 27 16 26 32 33 40 42 46 45 51 38 17 14 26 36 28 34 29 33 16 9 7 10 10 14 15 22 19 17 22 38 42 36
36 12 22 52 47 28 19 8 6 17 21 16 10 8 15 40 45 27 27 32 53 51 41 14 8 6 30 27 41 25 24 19 14 11 13 7 10 14 18 17 24 24 49 39 32
38 8 16 38 17 4 16 12 8 13 12 5 12 11 8 8 23 51 43 41 70 49 51 39 8 8 41 14 30 36 38 39 14 33 19 3 7 10 11 21 32 43 49 36 27
14 23 23 44 11 12 3 6 13 13 14 12 7 14 9 10 11 22 34 38 62 48 51 36 11 11 14 3 11 14 38 28 36 9 22 19 7 11 16 29 47 49 42 28 21
15 7 9 22 15 9 3 7 7 31 12 8 7 9 6 9 5 21 34 20 39 55 58 43 10 27 27 27 20 16 23 30 29 22 22 21 11 14 14 17 26 44 36 28 17
16 7 12 11 18 13 13 4 13 8 9 21 5 13 16 12 10 13 36 7 11 18 46 26 25 11 9 9 10 30 36 32 35 39 26 27 14 21 22 16 22 43 32 25 16
18 12 17 1 19 22 19 14 17 16 14 14 9 23 19 15 23 20 13 15 6 20 29 18 19 7 4 6 13 22 33 32 39 35 20 13 14 7 32 45 33 27 24 22 11
38 23 20 10 14 17 21 25 32 22 20 20 19 9 11 23 19 24 30 13 18 28 19 21 11 16 11 7 10 7 25 36 33 21 26 21 26 7 4 17 27 26 21 14 6
Wind_Direction_850mb
266 270 280 279 286 295 252 256 272 264 259 267 273 271 277 284 286 287 271 246 228 242 243 232 225 211 206 228 220 226 259 238 236 249 250 355 137 161 234 261 164 134 121 154 193
272 266 264 270 275 280 287 272 270 262 262 265 274 277 281 289 298 282 259 239 235 236 222 210 221 198 200 214 204 215 232 236 272 276 321 272 154 273 171 210 212 170 179 189 193
267 260 262 261 268 272 269 272 286 298 255 261 264 277 282 304 310 274 259 241 230 223 219 212 223 211 225 210 204 210 238 242 267 318 5 333 337 285 309 262 203 219 214 210 198
259 265 265 259 261 264 265 260 264 273 295 257 272 272 269 283 268 277 278 257 231 219 210 217 219 217 218 226 214 245 242 244 264 5 352 299 306 294 265 263 342 75 189 205 207
261 266 265 260 254 259 254 255 261 256 256 267 283 279 257 256 250 285 279 276 231 215 209 207 215 214 225 212 228 228 248 260 256 269 255 290 277 264 281 270 283 261 166 219 214
268 258 262 260 255 255 254 254 254 257 249 242 239 249 249 250 242 233 257 246 189 214 209 204 218 222 255 248 247 215 241 245 263 253 262 255 265 255 245 267 249 232 218 206 212
261 267 263 266 260 255 257 255 255 253 249 238 237 240 242 238 229 264 248 218 215 180 212 211 213 218 238 285 276 259 280 255 247 233 214 243 255 238 244 247 257 229 223 225 230
266 263 264 259 263 266 261 253 253 253 247 240 237 238 249 261 243 232 227 215 211 201 188 205 220 250 265 270 309 243 250 245 209 217 218 157 250 242 233 233 236 231 228 228 225
264 268 260 256 261 262 253 258 246 250 249 237 232 222 259 255 225 232 211 215 234 223 209 197 197 214 234 237 264 216 233 220 257 232 183 189 280 235 244 237 227 232 237 223 227
261 261 257 252 249 253 254 251 248 247 240 231 228 197 242 223 210 209 216 223 231 211 203 201 190 196 218 193 214 197 219 244 251 216 192 205 231 284 298 280 247 231 235 234 235
258 259 255 251 244 243 243 243 236 235 224 208 213 199 122 238 206 209 199 199 206 213 204 192 202 208 208 209 220 267 267 242 233 241 190 225 246 224 250 229 219 244 240 235 237
260 257 255 252 239 236 233 226 219 223 227 227 228 223 227 214 182 207 184 186 198 210 201 184 219 225 213 206 222 231 254 262 305 72 56 301 275 271 245 252 247 230 233 235 235
260 256 252 248 236 227 229 235 232 246 243 229 225 226 218 222 223 191 183 196 200 203 206 211 226 208 232 219 217 217 227 235 225 161 194 304 277 258 245 250 245 248 245 247 247
264 260 249 246 244 224 226 228 221 231 245 205 213 234 211 196 230 207 191 176 215 216 214 227 234 267 209 232 216 227 212 235 250 233 227 162 283 247 234 230 229 236 238 238 241
261 253 245 231 237 219 223 212 210 215 239 191 191 201 193 188 171 211 198 204 206 200 203 225 214 221 209 218 220 232 251 197 235 246 222 253 268 262 223 234 202 213 230 243 240
259 255 251 236 238 245 213 186 184 216 213 177 140 177 176 199 214 210 188 201 213 214 213 232 230 212 228 196 224 150 133 289 220 217 244 227 235 224 235 212 193 217 214 214 181
257 255 242 238 228 246 207 176 196 221 124 185 183 177 197 195 206 198 181 192 187 190 209 228 227 340 263 211 197 195 170 160 184 210 231 186 207 239 251 314 152 132 113 117 132
253 248 237 228 230 225 197 201 209 200 213 150 164 186 199 187 209 201 187 189 205 198 169 191 203 191 187 232 191 208 189 174 201 201 227 195 207 229 219 238 125 143 136 137 129
249 241 242 240 227 219 220 210 202 132 203 213 169 187 204 204 200 183 198 196 189 194 196 191 224 164 196 193 180 207 208 219 32 50 38 190 208 285 109 68 144 123 137 134 130
242 243 231 237 211 199 208 240 189 164 138 102 232 226 192 204 208 192 192 190 195 202 201 161 207 190 191 180 236 193 202 205 214 200 215 217 192 221 178 184 148 138 148 132 125
224 233 231 205 205 203 217 218 142 186 140 141 175 291 327 224 210 203 194 193 198 198 201 188 219 246 158 203 199 207 210 217 186 245 216 232 229 208 171 175 162 154 132 124 109
209 214 223 182 199 258 208 188 122 183 174 157 127 150 241 292 289 209 210 204 196 187 201 204 178 183 197 166 203 212 208 205 206 201 224 13 311 351 106 172 132 113 107 107 110
209 188 164 180 210 230 179 178 196 147 196 185 215 155 130 307 328 265 213 202 186 192 197 189 176 149 171 250 329 212 216 208 222 258 214 209 225 80 50 92 112 112 117 119 120
180 158 165 186 225 212 164 125 211 205 185 172 150 103 99 257 83 298 290 198 186 194 190 165 179 198 195 207 130 187 190 218 217 220 222 218 174 139 136 119 112 126 129 127 123
195 177 177 189 201 183 154 196 154 169 229 209 132 181 179 196 201 266 277 156 313 233 188 169 196 188 114 82 170 194 192 197 215 220 216 223 229 174 177 125 111 129 128 125 114
167 164 182 106 186 187 206 204 204 194 155 187 165 193 200 196 201 208 300 317 189 237 184 177 188 108 98 19 44 186 192 201 211 222 221 220 253 198 115 120 111 107 110 106 94
199 184 161 199 180 181 205 204 204 189 211 213 185 191 186 215 244 221 189 197 283 282 201 166 141 154 179 114 80 350 203 202 218 212 212 212 223 3 47 104 106 110 107 101 33